VOE7UU LFBO-LEMD

Flight info

Callsign VOE7UU
Flight time 1h 3m
Altitude 31000
Route GAUDE DCT TIVLI/N0447F390 DCT ELSAP DCT ZAR DCT KONKE DCT TERSA
Aircraft A320/M-SDE3FGHIRWY/LB1

Departure

Time 2026-05-07 10:50
Airport Toulouse-Blagnac Airport (LFBO)

Arrival

Time 2026-05-07 11:53
Airport Adolfo Suárez Madrid–Barajas Airport (LEMD)
Time Latitude Longitude Altitude Speed Heading
2026-05-07 10:25 43.62799 1.37666 494 ft 0 kts 53°
2026-05-07 10:42 43.62795 1.37657 494 ft 3 kts 53°
2026-05-07 10:42 43.62781 1.37632 483 ft 3 kts 63°
2026-05-07 10:42 43.62775 1.37603 486 ft 3 kts 107°
2026-05-07 10:42 43.62783 1.37582 483 ft 0 kts 143°
2026-05-07 10:44 43.62779 1.37587 483 ft 2 kts 143°
2026-05-07 10:45 43.62757 1.37610 485 ft 7 kts 143°
2026-05-07 10:45 43.62696 1.37599 492 ft 12 kts 229°
2026-05-07 10:45 43.62637 1.37480 492 ft 18 kts 239°
2026-05-07 10:45 43.62554 1.37332 494 ft 16 kts 222°
2026-05-07 10:46 43.62490 1.37369 490 ft 10 kts 143°
2026-05-07 10:46 43.62431 1.37431 488 ft 13 kts 143°
2026-05-07 10:46 43.62342 1.37524 486 ft 19 kts 142°
2026-05-07 10:46 43.62232 1.37639 491 ft 21 kts 143°
2026-05-07 10:47 43.62110 1.37764 494 ft 23 kts 145°
2026-05-07 10:47 43.61978 1.37903 494 ft 25 kts 142°
2026-05-07 10:47 43.61835 1.38050 488 ft 27 kts 143°
2026-05-07 10:47 43.61698 1.38177 492 ft 16 kts 174°
2026-05-07 10:48 43.61623 1.38105 490 ft 12 kts 233°
2026-05-07 10:48 43.61591 1.38012 490 ft 10 kts 279°
2026-05-07 10:48 43.61632 1.37952 487 ft 5 kts 322°
2026-05-07 10:48 43.61634 1.37950 486 ft 2 kts 322°
2026-05-07 10:49 43.61657 1.37925 488 ft 8 kts 322°
2026-05-07 10:49 43.61865 1.37710 494 ft 76 kts 323°
2026-05-07 10:49 43.62470 1.37081 492 ft 139 kts 323°
2026-05-07 10:49 43.63327 1.36189 885 ft 155 kts 325°
2026-05-07 10:50 43.64179 1.35304 1768 ft 151 kts 317°
2026-05-07 10:50 43.64987 1.34404 2578 ft 147 kts 317°
2026-05-07 10:50 43.65840 1.33446 3004 ft 169 kts 317°
2026-05-07 10:50 43.66816 1.32362 3404 ft 192 kts 317°
2026-05-07 10:51 43.67913 1.31142 3822 ft 211 kts 315°
2026-05-07 10:51 43.68859 1.29495 4297 ft 229 kts 294°
2026-05-07 10:51 43.69278 1.27754 4748 ft 244 kts 278°
2026-05-07 10:51 43.69277 1.25526 5553 ft 251 kts 260°
2026-05-07 10:52 43.68678 1.23247 6537 ft 256 kts 240°
2026-05-07 10:52 43.67489 1.21386 7478 ft 264 kts 219°
2026-05-07 10:52 43.65815 1.20259 8403 ft 275 kts 197°
2026-05-07 10:52 43.63880 1.20129 9356 ft 286 kts 175°
2026-05-07 10:53 43.61899 1.20560 10258 ft 290 kts 174°
2026-05-07 10:53 43.59892 1.20922 11115 ft 292 kts 183°
2026-05-07 10:53 43.57894 1.20536 11934 ft 292 kts 201°
2026-05-07 10:53 43.56033 1.19256 12268 ft 309 kts 218°
2026-05-07 10:54 43.54258 1.17439 12790 ft 322 kts 219°
2026-05-07 10:54 43.52443 1.15578 13564 ft 328 kts 219°
2026-05-07 10:54 43.50593 1.13696 14305 ft 332 kts 219°
2026-05-07 10:54 43.48721 1.11800 15026 ft 336 kts 218°
2026-05-07 10:55 43.46848 1.09913 15748 ft 339 kts 218°
2026-05-07 10:55 43.44934 1.07993 16459 ft 343 kts 218°
2026-05-07 10:55 43.42997 1.06054 17169 ft 346 kts 218°
2026-05-07 10:55 43.41038 1.04094 17870 ft 350 kts 218°
2026-05-07 10:56 43.39062 1.02115 18539 ft 353 kts 218°
2026-05-07 10:56 43.37062 1.00113 19124 ft 357 kts 218°
2026-05-07 10:56 43.35039 0.98095 19724 ft 361 kts 218°
2026-05-07 10:56 43.32993 0.96054 20305 ft 366 kts 219°
2026-05-07 10:57 43.30924 0.93988 20893 ft 370 kts 219°
2026-05-07 10:57 43.28828 0.91903 21474 ft 374 kts 219°
2026-05-07 10:57 43.26703 0.89804 22057 ft 379 kts 218°
2026-05-07 10:57 43.24547 0.87684 22619 ft 383 kts 218°
2026-05-07 10:58 43.22364 0.85545 23187 ft 388 kts 218°
2026-05-07 10:58 43.20154 0.83382 23724 ft 392 kts 218°
2026-05-07 10:58 43.17925 0.81198 24225 ft 395 kts 218°
2026-05-07 10:58 43.15689 0.79004 24756 ft 396 kts 218°
2026-05-07 10:59 43.13450 0.76810 25300 ft 396 kts 218°
2026-05-07 10:59 43.11207 0.74612 25831 ft 397 kts 218°
2026-05-07 10:59 43.08956 0.72408 26351 ft 398 kts 218°
2026-05-07 10:59 43.06705 0.70211 26854 ft 398 kts 218°
2026-05-07 11:00 43.04445 0.68004 27358 ft 399 kts 219°
2026-05-07 11:00 43.02352 0.65541 27851 ft 396 kts 229°
2026-05-07 11:00 43.00646 0.62610 28334 ft 394 kts 239°
2026-05-07 11:00 42.99384 0.59299 28811 ft 393 kts 249°
2026-05-07 11:01 42.98591 0.55734 29256 ft 394 kts 256°
2026-05-07 11:01 42.97957 0.52077 29679 ft 395 kts 256°
2026-05-07 11:01 42.97315 0.48425 30091 ft 397 kts 256°
2026-05-07 11:01 42.96663 0.44760 30414 ft 398 kts 256°
2026-05-07 11:02 42.96002 0.41078 30725 ft 400 kts 256°
2026-05-07 11:02 42.95337 0.37385 30954 ft 402 kts 256°
2026-05-07 11:02 42.94674 0.33716 30990 ft 390 kts 256°
2026-05-07 11:02 42.94048 0.30252 30999 ft 374 kts 256°
2026-05-07 11:03 42.92817 0.23411 30994 ft 366 kts 256°
2026-05-07 11:03 42.91612 0.16717 30997 ft 366 kts 256°
2026-05-07 11:04 42.90391 0.09972 30994 ft 367 kts 256°
2026-05-07 11:04 42.89158 0.03223 30991 ft 367 kts 256°
2026-05-07 11:05 42.87924 -0.03537 30979 ft 367 kts 256°
2026-05-07 11:05 42.86690 -0.10286 30972 ft 367 kts 256°
2026-05-07 11:06 42.85446 -0.17032 30960 ft 367 kts 256°
2026-05-07 11:06 42.84203 -0.23783 30958 ft 368 kts 256°
2026-05-07 11:07 42.82950 -0.30541 30957 ft 368 kts 256°
2026-05-07 11:07 42.81634 -0.37287 30948 ft 368 kts 250°
2026-05-07 11:08 42.80510 -0.40417 30950 ft 370 kts 238°
2026-05-07 11:08 42.78891 -0.43149 30950 ft 372 kts 226°
2026-05-07 11:08 42.76845 -0.45333 30948 ft 376 kts 214°
2026-05-07 11:08 42.74465 -0.46865 30946 ft 381 kts 205°
2026-05-07 11:09 42.69514 -0.49461 30948 ft 382 kts 205°
2026-05-07 11:09 42.64561 -0.52057 30947 ft 381 kts 205°
2026-05-07 11:10 42.59611 -0.54652 30948 ft 381 kts 205°
2026-05-07 11:10 42.54664 -0.57240 30953 ft 380 kts 205°
2026-05-07 11:11 42.49734 -0.59821 30955 ft 380 kts 205°
2026-05-07 11:11 42.44814 -0.62392 30953 ft 379 kts 205°
2026-05-07 11:12 42.39890 -0.64961 30957 ft 378 kts 205°
2026-05-07 11:12 42.34980 -0.67518 30952 ft 377 kts 205°
2026-05-07 11:13 42.30080 -0.70064 30960 ft 377 kts 205°
2026-05-07 11:13 42.25186 -0.72603 30951 ft 376 kts 205°
2026-05-07 11:14 42.20300 -0.75131 30957 ft 376 kts 206°
2026-05-07 11:14 42.15450 -0.77637 30953 ft 375 kts 205°
2026-05-07 11:15 42.10584 -0.80158 30963 ft 374 kts 206°
2026-05-07 11:15 42.05725 -0.82666 30960 ft 374 kts 206°
2026-05-07 11:16 42.00863 -0.85163 30961 ft 373 kts 205°
2026-05-07 11:16 41.96012 -0.87652 30963 ft 373 kts 205°
2026-05-07 11:17 41.91166 -0.90137 30965 ft 373 kts 205°
2026-05-07 11:17 41.86323 -0.92615 30970 ft 372 kts 205°
2026-05-07 11:18 41.81488 -0.95089 30971 ft 372 kts 205°
2026-05-07 11:18 41.76649 -0.97557 30972 ft 372 kts 205°
2026-05-07 11:19 41.71854 -1.00005 30973 ft 372 kts 205°
2026-05-07 11:19 41.67798 -1.02075 30971 ft 371 kts 207°
2026-05-07 11:20 41.64853 -1.04305 30974 ft 365 kts 220°
2026-05-07 11:20 41.63550 -1.05776 30973 ft 363 kts 225°
2026-05-07 11:20 41.59817 -1.10326 30977 ft 363 kts 225°
2026-05-07 11:21 41.56064 -1.14847 30976 ft 364 kts 224°
2026-05-07 11:21 41.52302 -1.19366 30969 ft 364 kts 224°
2026-05-07 11:22 41.48545 -1.23882 30965 ft 364 kts 224°
2026-05-07 11:22 41.44782 -1.28390 30961 ft 364 kts 224°
2026-05-07 11:23 41.41025 -1.32893 30951 ft 363 kts 224°
2026-05-07 11:23 41.37262 -1.37400 30943 ft 364 kts 224°
2026-05-07 11:24 41.33525 -1.41869 30943 ft 363 kts 224°
2026-05-07 11:24 41.31643 -1.44111 30801 ft 362 kts 224°
2026-05-07 11:24 41.29771 -1.46341 30552 ft 360 kts 224°
2026-05-07 11:25 41.27913 -1.48554 30309 ft 358 kts 224°
2026-05-07 11:25 41.26060 -1.50758 30064 ft 356 kts 224°
2026-05-07 11:25 41.24218 -1.52950 29777 ft 355 kts 224°
2026-05-07 11:25 41.22382 -1.55134 29495 ft 354 kts 224°
2026-05-07 11:26 41.20554 -1.57306 29204 ft 352 kts 224°
2026-05-07 11:26 41.18731 -1.59469 28924 ft 351 kts 224°
2026-05-07 11:26 41.16913 -1.61625 28642 ft 349 kts 224°
2026-05-07 11:26 41.15102 -1.63770 28365 ft 348 kts 224°
2026-05-07 11:27 41.13304 -1.65901 28093 ft 346 kts 224°
2026-05-07 11:27 41.11509 -1.68028 27820 ft 345 kts 224°
2026-05-07 11:27 41.09724 -1.70142 27552 ft 344 kts 224°
2026-05-07 11:27 41.07943 -1.72251 27285 ft 343 kts 224°
2026-05-07 11:28 41.06168 -1.74349 27013 ft 341 kts 224°
2026-05-07 11:28 41.04394 -1.76439 26760 ft 340 kts 223°
2026-05-07 11:28 41.02628 -1.78518 26504 ft 339 kts 223°
2026-05-07 11:28 41.00862 -1.80597 26251 ft 338 kts 223°
2026-05-07 11:29 40.99106 -1.82667 25996 ft 337 kts 224°
2026-05-07 11:29 40.97356 -1.84731 25745 ft 336 kts 223°
2026-05-07 11:29 40.95634 -1.86754 25499 ft 335 kts 223°
2026-05-07 11:29 40.93891 -1.88798 25252 ft 335 kts 223°
2026-05-07 11:30 40.92150 -1.90840 25008 ft 334 kts 223°
2026-05-07 11:30 40.90420 -1.92868 24703 ft 330 kts 223°
2026-05-07 11:30 40.88707 -1.94875 24239 ft 328 kts 220°
2026-05-07 11:30 40.86998 -1.96873 23787 ft 328 kts 220°
2026-05-07 11:31 40.85291 -1.98868 23283 ft 327 kts 220°
2026-05-07 11:31 40.83590 -2.00854 22795 ft 326 kts 220°
2026-05-07 11:31 40.81897 -2.02834 22346 ft 324 kts 220°
2026-05-07 11:31 40.80211 -2.04800 21894 ft 322 kts 220°
2026-05-07 11:32 40.76870 -2.08699 21017 ft 319 kts 220°
2026-05-07 11:32 40.75239 -2.10683 20572 ft 319 kts 226°
2026-05-07 11:32 40.73977 -2.13071 20148 ft 320 kts 241°
2026-05-07 11:33 40.73260 -2.15852 19784 ft 323 kts 257°
2026-05-07 11:33 40.73139 -2.18835 19562 ft 330 kts 272°
2026-05-07 11:33 40.73483 -2.21839 19314 ft 332 kts 276°
2026-05-07 11:33 40.73848 -2.24834 19053 ft 331 kts 276°
2026-05-07 11:34 40.74209 -2.27827 18801 ft 330 kts 276°
2026-05-07 11:34 40.74568 -2.30815 18540 ft 329 kts 276°
2026-05-07 11:34 40.74924 -2.33790 18284 ft 328 kts 276°
2026-05-07 11:34 40.75276 -2.36756 18014 ft 327 kts 276°
2026-05-07 11:35 40.75624 -2.39712 17752 ft 326 kts 276°
2026-05-07 11:35 40.75972 -2.42659 17498 ft 325 kts 276°
2026-05-07 11:35 40.76322 -2.45597 17248 ft 323 kts 276°
2026-05-07 11:35 40.76671 -2.48519 16998 ft 322 kts 276°
2026-05-07 11:36 40.77015 -2.51436 16741 ft 321 kts 276°
2026-05-07 11:36 40.77356 -2.54345 16500 ft 320 kts 276°
2026-05-07 11:36 40.77692 -2.57231 16258 ft 319 kts 276°
2026-05-07 11:36 40.77987 -2.60127 16005 ft 316 kts 269°
2026-05-07 11:37 40.77819 -2.62978 15767 ft 311 kts 255°
2026-05-07 11:37 40.77112 -2.65639 15524 ft 306 kts 240°
2026-05-07 11:37 40.75927 -2.67940 15289 ft 302 kts 226°
2026-05-07 11:37 40.74460 -2.69917 15064 ft 301 kts 224°
2026-05-07 11:38 40.73005 -2.71851 14830 ft 300 kts 224°
2026-05-07 11:38 40.71537 -2.73804 14598 ft 300 kts 224°
2026-05-07 11:38 40.70072 -2.75754 14365 ft 299 kts 224°
2026-05-07 11:38 40.68624 -2.77685 14189 ft 292 kts 224°
2026-05-07 11:39 40.67219 -2.79556 14066 ft 283 kts 224°
2026-05-07 11:39 40.65841 -2.81354 13944 ft 274 kts 219°
2026-05-07 11:39 40.64301 -2.82748 13818 ft 265 kts 210°
2026-05-07 11:39 40.62744 -2.84001 13604 ft 260 kts 210°
2026-05-07 11:40 40.61193 -2.85249 13295 ft 260 kts 210°
2026-05-07 11:40 40.59664 -2.86485 13051 ft 256 kts 210°
2026-05-07 11:40 40.58151 -2.87706 12850 ft 254 kts 210°
2026-05-07 11:40 40.56647 -2.88916 12625 ft 253 kts 210°
2026-05-07 11:41 40.55150 -2.90117 12405 ft 252 kts 210°
2026-05-07 11:41 40.53660 -2.91317 12191 ft 251 kts 210°
2026-05-07 11:41 40.52175 -2.92511 11956 ft 250 kts 210°
2026-05-07 11:41 40.50692 -2.93701 11736 ft 249 kts 210°
2026-05-07 11:42 40.49220 -2.94885 11523 ft 248 kts 211°
2026-05-07 11:42 40.47753 -2.96064 11307 ft 247 kts 211°
2026-05-07 11:42 40.46287 -2.97240 11085 ft 246 kts 211°
2026-05-07 11:42 40.44850 -2.98392 10878 ft 245 kts 211°
2026-05-07 11:43 40.43395 -2.99561 10665 ft 245 kts 211°
2026-05-07 11:43 40.41945 -3.00724 10445 ft 244 kts 211°
2026-05-07 11:43 40.40498 -3.01884 10221 ft 243 kts 211°
2026-05-07 11:43 40.39055 -3.03036 10002 ft 242 kts 211°
2026-05-07 11:44 40.37616 -3.04186 9785 ft 241 kts 211°
2026-05-07 11:44 40.36181 -3.05334 9561 ft 241 kts 211°
2026-05-07 11:44 40.34751 -3.06478 9327 ft 240 kts 211°
2026-05-07 11:44 40.33326 -3.07618 9117 ft 240 kts 211°
2026-05-07 11:45 40.31904 -3.08752 8902 ft 239 kts 210°
2026-05-07 11:45 40.30495 -3.09872 8689 ft 238 kts 210°
2026-05-07 11:45 40.29073 -3.11003 8478 ft 237 kts 210°
2026-05-07 11:45 40.27684 -3.12170 8263 ft 237 kts 219°
2026-05-07 11:46 40.26655 -3.13845 8072 ft 239 kts 242°
2026-05-07 11:46 40.26230 -3.15957 7961 ft 243 kts 266°
2026-05-07 11:46 40.26424 -3.18139 7969 ft 247 kts 277°
2026-05-07 11:46 40.26729 -3.20406 7494 ft 256 kts 277°
2026-05-07 11:47 40.27030 -3.22751 6772 ft 272 kts 277°
2026-05-07 11:47 40.27252 -3.25164 6597 ft 260 kts 268°
2026-05-07 11:47 40.27364 -3.27477 6470 ft 250 kts 276°
2026-05-07 11:47 40.27669 -3.29682 6348 ft 241 kts 279°
2026-05-07 11:48 40.28026 -3.31784 6223 ft 232 kts 281°
2026-05-07 11:48 40.28554 -3.33750 6011 ft 228 kts 292°
2026-05-07 11:48 40.29182 -3.35653 5689 ft 226 kts 290°
2026-05-07 11:48 40.29769 -3.37570 5341 ft 226 kts 289°
2026-05-07 11:49 40.30405 -3.39452 4997 ft 228 kts 304°
2026-05-07 11:49 40.31564 -3.40814 4869 ft 221 kts 323°
2026-05-07 11:49 40.32777 -3.41976 4728 ft 212 kts 323°
2026-05-07 11:49 40.33953 -3.43100 4530 ft 208 kts 323°
2026-05-07 11:50 40.35118 -3.44213 4235 ft 207 kts 323°
2026-05-07 11:50 40.36275 -3.45320 4008 ft 205 kts 322°
2026-05-07 11:50 40.37417 -3.46417 3997 ft 196 kts 322°
2026-05-07 11:50 40.38462 -3.47448 3860 ft 179 kts 321°
2026-05-07 11:51 40.39397 -3.48393 3718 ft 163 kts 321°
2026-05-07 11:51 40.40263 -3.49292 3540 ft 156 kts 320°
2026-05-07 11:51 40.41112 -3.50152 3307 ft 152 kts 322°
2026-05-07 11:51 40.41940 -3.50988 3094 ft 149 kts 322°
2026-05-07 11:52 40.42756 -3.51801 2851 ft 145 kts 322°
2026-05-07 11:52 40.43556 -3.52598 2675 ft 143 kts 322°
2026-05-07 11:52 40.44332 -3.53393 2489 ft 141 kts 322°
2026-05-07 11:52 40.45105 -3.54179 2282 ft 140 kts 323°
2026-05-07 11:53 40.45867 -3.54939 2072 ft 140 kts 322°
2026-05-07 11:53 40.46624 -3.55714 1958 ft 129 kts 322°
2026-05-07 11:53 40.47209 -3.56300 1984 ft 81 kts 322°
2026-05-07 11:53 40.47519 -3.56615 1994 ft 32 kts 321°
2026-05-07 11:54 40.47683 -3.56787 1996 ft 30 kts 313°
2026-05-07 11:54 40.47778 -3.56978 1998 ft 17 kts 295°
2026-05-07 11:54 40.47786 -3.57110 2000 ft 13 kts 222°
2026-05-07 11:54 40.47704 -3.57073 1998 ft 15 kts 142°
2026-05-07 11:55 40.47609 -3.57086 1996 ft 13 kts 169°
2026-05-07 11:55 40.47522 -3.57010 1993 ft 16 kts 115°
2026-05-07 11:55 40.47431 -3.56914 1990 ft 19 kts 143°
2026-05-07 11:55 40.47318 -3.56800 1987 ft 23 kts 142°
2026-05-07 11:56 40.47181 -3.56660 1983 ft 27 kts 142°
2026-05-07 11:56 40.47050 -3.56559 1980 ft 23 kts 162°
2026-05-07 11:56 40.46921 -3.56550 1976 ft 14 kts 185°
2026-05-07 11:56 40.46878 -3.56653 1979 ft 14 kts 238°
2026-05-07 11:57 40.46786 -3.56695 1974 ft 15 kts 187°
2026-05-07 11:57 40.46671 -3.56703 1973 ft 18 kts 184°
2026-05-07 11:57 40.46559 -3.56712 1976 ft 15 kts 183°
2026-05-07 11:57 40.46499 -3.56729 1978 ft 4 kts 234°
2026-05-07 11:58 40.46498 -3.56738 1978 ft 2 kts 257°
2026-05-07 11:58 40.46498 -3.56754 1972 ft 4 kts 269°
2026-05-07 11:58 40.46498 -3.56794 1972 ft 4 kts 271°
2026-05-07 11:58 40.46499 -3.56810 1972 ft 0 kts 271°
2026-05-07 12:01 40.46499 -3.56811 1972 ft 0 kts 271°